Location: Ermatingen
(47.6706°N, 9.0857°E)
Time: 03:14:56
(UTC+00:00)

Nadezhda 4 Rocket - Pass Details

Date: 18 September 2020
Orbit: 949 x 993 km, 82.9° (Epoch: 24 October)

Event Time Altitude Azimuth Distance (km) Brightness Sun altitude
Rises 18:50:28 0° 353° (N) 3,640 7.4 -14.3°
Reaches altitude 10° 18:53:01 10° 357° (N) 2,688 6.6 -14.7°
Maximum altitude 18:59:05 62° 78° (ENE) 1,068 4.0 -15.7°
Enters shadow 19:04:42 12° 157° (SSE) 2,517 5.8 -16.5°
